Simultaneous Nadir Overpasses (SNOs) Predictions

Prediction of SNOs between GOES-15 and METOP-B Satellite Orbit:

Table of predicted SNOs for the next 14.0 days since TLE Epoch: 4/30/2022
Index Date Time (GOES-15) GOES-15 Lat,Lon METOP-B Lat,Lon Distance(km) Time Diff (sec)
1 04/30/2022 06:09:50 0.15,-128.15 -0.32,-130.21 234.74 80
2 05/01/2022 05:51:51 0.15,-128.13 0.81,-125.22 332.24 80
3 05/02/2022 18:08:02 -0.16,-128.15 0.20,-129.78 185.65 80
4 05/03/2022 17:50:02 -0.16,-128.12 -0.93,-124.78 380.96 80
5 05/05/2022 06:06:22 0.17,-128.03 -0.12,-129.37 152.77 80
6 05/06/2022 05:48:21 0.17,-128.00 0.96,-124.37 413.44 80
7 05/07/2022 18:04:33 -0.18,-128.01 0.03,-128.93 105.40 80
8 05/08/2022 17:46:33 -0.18,-127.98 -1.10,-123.94 460.67 80
9 05/10/2022 06:02:52 0.19,-127.88 0.06,-128.53 73.59 80
10 05/11/2022 05:44:52 0.19,-127.85 1.15,-123.52 492.31 80
11 05/12/2022 18:01:03 -0.19,-127.85 -0.17,-128.09 27.18 80
